EHI
0 0 0 0 0 0 0 0 0 0 0 0 0 0 0 0 0 0 0 0 0 0 0 0 0 0 0 0 0 0 0 0 0 0 0 0 0 0 0 0 0 0 0 0
0 0 0 0 0 0 0 0 0 0 0 0 0 0 0 0 0 0 0 0 0 0 0 0 0 0 0 0 0 0 0 0 0 0 0 0 0 0 0 0 0 0 0 0
0 0 0 0 0 0 0 0 0 0 0 0 0 0 0 0 0 0 0 0 0 0 0 0 0 0 0 0 0 0 0 0 0 0 0 0 0 0 0 0 0 0 0 0
0 0 0 0 0 0 0 0 0 0 0 0 0 0 0 0 0 0 0 0 0 0 0 0 0 0 0 0 0 0 0 0 0 0 0 0 0 0 0 0 0 0 0 0
0 0 0 0 0 0 0 0 0 0 0 0 0 0 0 0 0 0 0 0 0 0 0 0 0 0 0 0 0 0 0 0 0 0 0 0 0 0 0 0 0 0 0 0
0 0 0 0 0 0 0 0 0 0 0 0 0 0 0 0 0 0 0 0 0 0 0 0 0 0 0 0 0 0 0 0 0 0 0 0 0 0 0 0 0 0 0 0
0 0 0 0 0 0 0 0 0 0 0 0 0 0 0 0 0 0 0 0 0 0 0 0 0 0 0 0 0 0 0 0 0 0 0 0 0 0 0 0 0 0 0 0
0 0 0 0 0 0 0 0 0 0 0 0 0 0 0 0 0 0 0 0 0 0 0 0 0 0 0 0 0 0 0 0 0 0 0 0 0 0 0 0 0 0 0 0
0 0 0 0 0 0 0 0 0 0 0 0 0 0 0 0 0 0 0 0 0 0 0 0 0 0 0 0 0 0 0 0 0 0 0 0 0 0 0 0 0 0 0 0
0 0 0 0 0 0 0 0 0 0 0 0 0 0 0 0 0 0 0 0 0 0 0 0 0 0 0 0 0 0 0 0 0 0 0 0 0 0 0 0 0 0 0 0
0 0 0 0 0 0 0 0 0 0 0 0 0 0 0 0 0 0 0 0 0 0 0 0 0 0 0 0 0 0 0 0 0 0 0 0 0 0 0 0 0 0 0 0
0 0 0 0 0 0 0 0 0 0 0 0 0 0 0 0 0 0 0 0 0 0 0 0 0 0 0 0 0 0 0 0 0 0 0 0 0 0 0 0 0 0 0 0
0 0 0 0 0 0 0 0 0 0 0 0 0 0 0 0 0 0 0 0 0 0 0 0 0 0 0 0 0 0 0 0 0 0 0 0 0 0 0 0 0 0 0 0
0 0 0 0 0 0 0 0 0 0 0 0 0 0 0 0 0 0 0 0 0 0 0 0 0 0 0 0 0 0 0 0 0 0 0 0 0 0 0 0 0 0 0 0
0 0 0 0 0 0 0 0 0 0 0 0 0 0 0 0 0 0 0 0 0 0 0 0 0 0 0 0 0 0 0 0 0 0 0 0 0 0 0 0 0 0 0 0
0 0 0 0 0 0 0 0 0 0 0 0 0 0 0 0 0 0 0 0 0 0 0 0 0 0 0 0 0 0 0 0 0 0 0 0 0 0 0 0 0 0 0 0
0 0 0 0 0 0 0 0 0 0 0 0 0 0 0 0 0 0 0 0 0 0 0 0 0 0 0 0 0 0 0 0 0 0 0 0 0 0 0 0 0 0 0 0
0 0 0 0 0 0 0 0 0 0 0 0 0 0 0 0 0 0 0 0 0 0 0 0 0 0 0 0 0 0 0 0 0 0 0 0 0 0 0 0 0 0 0 0
0 0 0 0 0 0 0 0 0 0 0 0 0 0 0 0 0 0 0 0 0 0 0 0 0 0 0 0 0 0 0 0 0 0 0 0 0 0 0 0 0 0 0 0
0 0 0 0 0 0 0 0 0 0 0 0 0 0 0 0 0 0 0 0 0 0 0 0 0 0 0 0 0 0 0 0 0 0 0 0 0 0 0 0 0 0 0 0
0 0 0 0 0 0 0 0 0 0 0 0 0 0 0 0 0 0 0 0 0 0 0 0 0 0 0 0 0 0 0 0 0 0 0 0 0 0 0 0 0 0 0 0
0 0 0 0 0 0 0 0 0 0 0 0 0 0 0 0 0 0 0 0 0 0 0 0 0 0 0 0 0 0 0 0 0 0 0 0 0 0 0 0 0 0 0 0
0 0 0 0 0 0 0 0 0 0 0 0 0 0 0 0 0 0 0 0 0 0 0 0 0 0 0 0 0 0 0 0 0 0 0 0 0 0 0 0 0 0 0 0
0 0 0 0 0 0 0 0 0 0 0 0 0 0 0 0 0 0 0 0 0 0 0 0 0 0 0 0 0 0 0 0 0 0 0 0 0 0 0 0 0 0 0 0
0 0 0 0 0 0 0 0 0 0 0 0 0 0 0 0 0 0 0 0 0 0 0 0 0 0 0 0 0 0 0 0 0 0 0 0 0 0 0 0 0 0 0 0
0 0 0 0 0 0 0 0 0 0 0 0 0 0 0 0 0 0 0 0 0 0 0 0 0 0 0 0 0 0 0 0 0 0 0 0 0 0 0 0 0 0 0 0
Wind_Speed
1 2 2 3 4 4 5 8 10 8 6 8 10 12 11 7 6 7 6 6 6 6 5 3 4 4 4 4 4 5 5 5 5 4 4 4 4 3 3 3 4 4 4 5
2 3 3 3 3 5 6 9 9 7 5 7 10 12 9 6 6 6 7 7 7 6 4 4 4 4 5 5 4 4 5 6 6 4 4 3 3 3 3 3 3 4 4 4
4 2 1 3 4 5 7 8 8 9 9 5 8 7 3 3 3 4 5 5 6 6 6 5 5 5 5 5 5 5 5 6 5 5 4 4 3 3 3 4 4 4 4 5
4 2 3 4 5 5 6 4 8 8 7 3 4 5 3 4 4 3 4 4 5 5 6 5 5 5 6 6 6 6 6 6 6 6 6 7 5 5 5 4 4 5 5 4
3 2 3 4 4 5 5 5 7 7 6 5 3 5 4 3 5 5 4 4 5 5 5 5 5 5 5 5 5 6 6 6 6 7 7 7 6 4 4 5 6 5 5 5
4 2 4 4 3 4 4 4 3 4 4 5 3 5 4 3 6 7 6 5 4 4 4 5 4 3 3 3 4 5 6 6 6 7 7 7 7 6 6 7 6 5 4 4
3 3 2 2 3 3 3 3 2 2 2 3 1 5 5 4 6 6 7 6 5 4 4 4 4 4 3 4 4 5 6 6 7 7 7 7 7 7 7 7 7 6 5 4
4 3 3 3 2 2 2 3 2 3 4 3 2 5 3 4 5 5 6 6 5 4 3 3 4 4 4 4 4 4 6 6 7 8 7 6 7 5 5 6 5 5 4 5
4 3 1 2 1 3 2 2 2 3 3 5 4 4 4 3 4 5 6 6 6 5 3 3 3 3 3 3 4 5 6 6 6 7 7 7 7 6 5 6 5 4 4 4
3 4 1 1 2 1 2 2 3 3 3 5 4 4 2 3 5 6 7 7 7 6 4 3 2 2 2 3 3 4 5 6 6 6 6 5 6 6 6 6 6 6 6 5
4 4 2 2 5 4 4 4 3 3 3 5 5 3 1 2 5 6 7 7 6 6 5 3 3 1 1 1 2 3 4 5 5 6 6 6 6 6 6 6 6 6 6 6
4 4 4 4 0 2 4 5 6 4 4 5 5 4 3 2 4 6 7 7 6 5 4 3 2 2 1 1 1 3 4 4 5 5 6 6 6 6 6 6 6 6 6 6
5 5 4 3 3 4 5 5 6 4 4 6 7 4 3 2 5 6 7 7 6 5 4 3 2 1 1 1 1 2 3 3 4 5 6 6 7 7 7 7 6 6 6 6
5 6 8 8 4 3 6 7 8 7 6 8 10 10 7 7 9 9 7 6 5 4 4 3 2 2 1 1 1 2 2 3 3 5 6 6 7 7 7 6 6 6 6 7
5 7 8 10 9 7 9 11 11 13 13 12 11 11 11 9 9 9 7 6 5 5 5 4 3 3 2 1 1 2 2 2 3 4 5 5 5 5 6 6 6 6 6 6
4 6 4 7 7 7 11 13 13 14 13 14 14 14 9 9 7 7 6 5 5 5 5 5 4 4 3 2 2 2 2 2 3 4 4 4 4 5 6 6 6 6 6 6
5 5 5 6 4 6 11 10 10 8 9 10 11 8 7 7 7 7 6 6 6 6 6 6 5 5 4 3 3 3 2 2 3 4 4 4 5 5 5 6 6 6 6 6
7 6 4 4 4 10 3 1 4 6 6 7 6 5 5 7 7 5 4 6 7 7 7 6 6 6 5 4 3 2 2 2 3 3 3 4 4 5 5 5 6 6 5 6
9 8 5 4 7 9 4 2 4 5 4 3 5 5 5 5 4 2 3 6 8 7 7 6 6 5 4 3 2 2 2 2 2 3 3 3 4 4 5 6 6 5 5 5
5 7 6 6 7 8 1 2 1 3 4 1 1 3 4 3 3 3 6 8 8 7 6 6 5 5 4 3 2 2 2 2 3 3 3 3 4 4 5 5 5 4 4 5
6 7 9 10 9 8 1 0 3 5 1 2 2 3 2 3 4 6 7 7 7 7 6 5 5 4 4 3 2 2 3 4 3 3 3 3 4 4 4 4 4 4 4 4
8 7 8 7 9 7 2 2 2 2 3 2 3 3 4 6 7 7 7 7 7 7 6 5 5 4 4 3 3 3 4 3 2 3 3 3 4 3 3 4 4 4 4 5
6 5 4 6 4 2 1 0 2 2 2 3 4 4 5 6 7 7 7 7 7 7 6 5 5 5 4 4 3 4 4 3 2 2 3 3 3 3 3 4 4 4 4 4
4 3 4 5 5 2 2 2 2 3 4 5 5 6 5 6 7 8 7 7 7 7 6 5 5 5 5 4 4 4 3 3 3 3 3 3 3 3 3 3 3 4 4 4
4 3 4 6 4 3 2 3 4 5 5 5 5 5 6 6 7 7 7 7 7 6 5 5 5 5 5 5 4 4 3 2 3 3 3 3 3 3 3 3 3 4 5 4
4 5 5 5 3 4 5 5 6 6 6 6 6 6 6 6 7 7 7 7 6 6 5 5 5 5 5 4 4 3 2 2 3 2 3 2 2 2 2 2 2 3 5 6
Wind_Direction
294 239 254 272 253 268 283 284 283 285 302 292 276 279 287 292 277 264 259 254 251 250 245 220 203 195 184 179 184 180 178 178 177 170 168 168 173 165 164 158 158 166 163 164
226 249 265 268 247 250 264 283 287 291 311 297 289 285 284 284 272 264 259 254 253 251 238 216 198 188 190 187 188 190 189 186 186 184 177 173 157 161 157 151 161 166 165 164
253 305 252 234 251 260 260 272 290 303 313 282 295 279 281 310 289 280 266 258 255 245 235 219 202 195 197 197 194 194 197 194 189 177 160 138 131 142 162 169 172 175 176 168
258 252 236 249 252 258 271 269 280 289 294 287 309 290 302 328 326 321 292 270 260 245 234 226 213 205 202 202 200 198 193 191 185 177 176 172 180 184 185 174 169 167 175 171
264 239 239 250 258 243 275 296 280 273 268 269 260 270 293 342 321 323 306 290 277 257 243 233 224 218 211 203 195 194 191 187 183 185 185 185 189 184 164 162 162 165 168 170
263 250 250 260 267 237 272 272 245 232 242 255 255 266 291 330 314 316 313 298 292 273 252 244 229 216 207 203 194 191 189 188 186 188 189 192 188 177 167 170 170 172 167 167
268 219 212 230 251 203 256 273 275 244 238 263 264 254 271 326 319 313 314 313 314 298 263 250 232 215 208 204 200 197 193 191 189 190 191 194 192 186 184 180 180 173 172 173
279 261 197 202 239 247 233 279 297 294 289 298 247 252 276 325 319 322 324 324 328 320 293 269 251 235 223 209 202 200 202 197 193 192 193 193 194 193 189 183 180 180 178 175
254 268 118 206 243 235 199 207 304 288 276 268 261 275 280 314 335 347 348 346 342 336 323 299 270 250 239 221 210 209 206 200 197 196 192 196 192 191 186 180 180 179 175 163
247 265 230 172 192 197 275 178 194 236 280 276 272 265 286 332 340 347 352 349 344 345 337 321 291 255 243 230 213 208 206 201 196 194 195 194 192 189 185 182 182 178 174 169
223 247 240 208 216 210 174 188 218 227 269 280 284 268 73 325 334 331 338 344 343 342 336 323 314 296 254 208 191 191 196 197 192 192 192 190 189 187 186 187 186 182 178 176
202 236 251 241 169 290 230 220 209 236 239 247 273 274 84 335 337 331 331 338 342 342 341 335 329 322 304 245 208 193 191 196 196 189 189 191 188 186 188 190 187 184 183 181
174 215 253 217 184 188 220 219 223 240 252 238 249 259 92 354 338 335 329 334 341 341 346 349 348 338 307 272 243 227 206 199 193 190 191 190 191 191 193 192 186 185 185 182
194 226 236 255 278 206 233 229 216 213 232 244 244 266 282 315 323 328 329 329 333 339 339 338 334 331 315 288 261 237 230 208 193 192 195 198 199 196 193 188 184 185 186 185
207 243 245 262 271 256 253 248 227 224 236 250 263 270 284 305 311 314 319 323 330 335 331 324 318 321 314 294 281 262 241 221 200 196 200 205 204 195 190 186 184 185 188 191
219 245 248 261 254 254 260 255 241 237 240 248 264 272 287 301 308 313 318 320 318 319 316 316 317 312 304 290 272 256 241 225 211 207 207 202 198 194 192 191 187 186 189 191
208 216 232 256 268 276 257 241 223 221 223 230 245 265 301 305 313 314 317 317 314 316 315 312 309 305 300 293 275 253 242 220 213 211 207 201 198 199 198 192 191 192 192 193
208 208 232 260 254 245 257 92 212 223 232 228 251 283 303 306 306 298 312 327 324 324 319 313 309 308 304 294 284 271 241 218 214 213 211 204 200 201 198 198 200 198 195 198
218 211 218 226 246 264 259 207 194 208 232 227 256 290 313 324 298 267 346 336 322 317 316 313 308 304 299 290 279 251 232 224 221 220 217 210 203 199 199 203 204 201 199 203
198 218 225 222 239 247 204 131 178 210 226 97 288 309 327 330 298 331 346 332 326 325 324 323 318 312 304 304 285 246 241 238 240 240 232 218 212 207 207 210 208 206 205 210
175 199 219 229 241 260 291 166 180 220 297 43 333 318 305 290 306 319 319 319 321 320 320 320 316 309 306 305 282 262 258 253 258 253 233 219 215 216 214 213 211 207 205 211
192 195 206 212 229 245 113 141 206 337 18 340 311 303 294 296 306 308 310 315 320 321 319 318 314 311 309 296 274 268 269 274 263 239 225 219 215 208 209 211 214 210 208 216
218 220 213 215 236 17 98 130 354 348 317 314 305 301 292 295 301 307 306 309 314 315 315 313 308 306 305 293 275 269 280 283 257 236 231 222 213 214 215 214 214 212 212 219
227 237 236 249 258 279 296 312 313 314 309 307 301 298 291 291 296 299 299 302 307 309 312 310 305 302 302 298 287 280 281 264 238 228 227 222 215 216 219 220 216 216 216 220
249 203 231 254 274 299 295 306 314 316 312 307 307 301 293 293 294 296 297 298 301 303 305 301 294 294 297 299 294 293 281 250 234 229 223 221 220 217 222 228 230 231 235 236
228 227 235 251 252 267 281 297 309 309 306 303 303 302 301 295 293 295 293 294 295 296 299 297 296 296 299 299 297 296 281 248 231 226 222 220 220 221 226 235 258 251 249 254